• En España
  • Lista de países
  • Para 7 días
  • Temperatura del agua
  • Mapa Satelital
  • El tiempo en el mapa
  • Informadores
  • user-avatar
    Iniciar sesión

    Tiempo cada hora Veliko Tarnovo

    Hoy, 19 Septiembre, Miércoles

    Tiempo Temperatura Precipitaciones Viento Presión Humedad
    00:00 +16°C° 0 mm 2 mps 744 mmHg 69%
    01:00 +15°C° 0 mm 2 mps 744 mmHg 71%
    02:00 +15°C° 0 mm 2 mps 744 mmHg 71%
    03:00 +15°C° 0 mm 1 mps 744 mmHg 73%
    04:00 +14°C° 0 mm 1 mps 744 mmHg 75%
    05:00 +14°C° 0 mm 1 mps 744 mmHg 76%
    06:00 +15°C° 0 mm 1 mps 744 mmHg 72%
    07:00 +18°C° 0 mm 1 mps 744 mmHg 68%
    08:00 +19°C° 0 mm 1 mps 744 mmHg 62%
    09:00 +20°C° 0 mm 2 mps 744 mmHg 55%
    10:00 +23°C° 0 mm 2 mps 744 mmHg 47%
    11:00 +25°C° 0 mm 2 mps 745 mmHg 40%
    12:00 +26°C° 0 mm 2 mps 744 mmHg 37%
    13:00 +26°C° 0 mm 2 mps 744 mmHg 34%
    14:00 +27°C° 0 mm 2 mps 744 mmHg 34%
    15:00 +27°C° 0 mm 2 mps 744 mmHg 35%
    16:00 +26°C° 0 mm 2 mps 743 mmHg 36%
    17:00 +26°C° 0 mm 2 mps 743 mmHg 37%
    18:00 +24°C° 0 mm 2 mps 743 mmHg 45%
    19:00 +20°C° 0 mm 2 mps 743 mmHg 53%
    20:00 +18°C° 0 mm 2 mps 743 mmHg 61%
    21:00 +17°C° 0 mm 2 mps 743 mmHg 65%
    22:00 +17°C° 0 mm 2 mps 743 mmHg 69%
    23:00 +16°C° 0 mm 1 mps 743 mmHg 74%

    Mañana, 20 Septiembre, Jueves

    Tiempo Temperatura Precipitaciones Viento Presión Humedad
    00:00 +16°C° 0 mm 1 mps 743 mmHg 76%
    01:00 +15°C° 0 mm 1 mps 743 mmHg 78%
    02:00 +15°C° 0 mm 1 mps 743 mmHg 79%
    03:00 +15°C° 0 mm 1 mps 743 mmHg 80%
    04:00 +14°C° 0 mm 1 mps 743 mmHg 81%
    05:00 +14°C° 0 mm 1 mps 743 mmHg 82%
    06:00 +15°C° 0 mm 1 mps 743 mmHg 75%
    07:00 +18°C° 0 mm 1 mps 743 mmHg 69%
    08:00 +17°C° 0 mm 0 mps 743 mmHg 62%
    09:00 +21°C° 0 mm 1 mps 743 mmHg 53%
    10:00 +23°C° 0 mm 1 mps 743 mmHg 44%
    11:00 +25°C° 0 mm 2 mps 743 mmHg 35%
    12:00 +26°C° 0 mm 2 mps 743 mmHg 32%
    13:00 +27°C° 0 mm 2 mps 743 mmHg 29%
    14:00 +28°C° 0 mm 2 mps 742 mmHg 27%
    15:00 +28°C° 0 mm 2 mps 742 mmHg 29%
    16:00 +28°C° 0 mm 2 mps 742 mmHg 32%
    17:00 +27°C° 0 mm 2 mps 742 mmHg 34%
    18:00 +25°C° 0 mm 2 mps 742 mmHg 40%
    19:00 +23°C° 0 mm 2 mps 742 mmHg 46%
    20:00 +21°C° 0 mm 1 mps 742 mmHg 53%
    21:00 +20°C° 0 mm 1 mps 742 mmHg 57%
    22:00 +19°C° 0 mm 1 mps 742 mmHg 61%
    23:00 +19°C° 0 mm 1 mps 742 mmHg 65%

    Pasado mañana, 21 Septiembre, Viernes

    Tiempo Temperatura Precipitaciones Viento Presión Humedad
    00:00 +18°C° 0 mm 1 mps 742 mmHg 67%
    01:00 +18°C° 0 mm 1 mps 742 mmHg 69%
    02:00 +18°C° 0 mm 1 mps 742 mmHg 71%
    03:00 +18°C° 0 mm 1 mps 742 mmHg 72%
    04:00 +16°C° 0 mm 1 mps 742 mmHg 73%
    05:00 +16°C° 0 mm 1 mps 741 mmHg 74%
    06:00 +18°C° 0 mm 1 mps 742 mmHg 69%
    07:00 +18°C° 0 mm 0 mps 742 mmHg 64%
    08:00 +19°C° 0 mm 0 mps 742 mmHg 59%
    09:00 +23°C° 0 mm 1 mps 742 mmHg 52%
    10:00 +25°C° 0 mm 1 mps 742 mmHg 44%
    11:00 +27°C° 0 mm 2 mps 742 mmHg 36%
    12:00 +28°C° 0 mm 2 mps 742 mmHg 34%
    13:00 +29°C° 0 mm 2 mps 742 mmHg 31%
    14:00 +30°C° 0 mm 2 mps 741 mmHg 28%
    15:00 +29°C° 0 mm 2 mps 741 mmHg 30%
    16:00 +29°C° 0 mm 1 mps 741 mmHg 33%
    17:00 +28°C° 0 mm 1 mps 741 mmHg 35%
    18:00 +26°C° 0 mm 1 mps 741 mmHg 38%
    19:00 +25°C° 0 mm 2 mps 741 mmHg 42%
    20:00 +23°C° 0 mm 2 mps 741 mmHg 45%
    21:00 +21°C° 0 mm 2 mps 741 mmHg 49%
    22:00 +21°C° 0 mm 2 mps 741 mmHg 53%
    23:00 +20°C° 0 mm 2 mps 741 mmHg 56%

    22 Septiembre, Sábado

    Tiempo Temperatura Precipitaciones Viento Presión Humedad
    00:00 +20°C° 0 mm 1 mps 741 mmHg 59%
    01:00 +20°C° 0 mm 1 mps 741 mmHg 62%
    02:00 +19°C° 0 mm 1 mps 741 mmHg 65%
    03:00 +19°C° 0 mm 1 mps 741 mmHg 66%
    04:00 +18°C° 0 mm 1 mps 741 mmHg 67%
    05:00 +18°C° 0 mm 1 mps 741 mmHg 68%
    06:00 +20°C° 0 mm 1 mps 741 mmHg 63%
    07:00 +21°C° 0 mm 1 mps 741 mmHg 58%
    08:00 +20°C° 0 mm 0 mps 741 mmHg 53%
    09:00 +24°C° 0 mm 1 mps 741 mmHg 47%
    10:00 +27°C° 0 mm 1 mps 741 mmHg 40%
    11:00 +29°C° 0 mm 1 mps 741 mmHg 34%
    12:00 +29°C° 0 mm 1 mps 741 mmHg 31%
    13:00 +30°C° 0 mm 1 mps 741 mmHg 29%
    14:00 +31°C° 0 mm 1 mps 740 mmHg 27%
    15:00 +31°C° 0 mm 1 mps 740 mmHg 28%
    16:00 +30°C° 0 mm 1 mps 740 mmHg 30%
    17:00 +30°C° 0 mm 1 mps 740 mmHg 31%
    18:00 +27°C° 0 mm 1 mps 740 mmHg 35%
    19:00 +25°C° 0 mm 1 mps 740 mmHg 38%
    20:00 +23°C° 0 mm 1 mps 740 mmHg 42%
    21:00 +22°C° 0 mm 1 mps 740 mmHg 43%
    22:00 +22°C° 0 mm 1 mps 741 mmHg 44%
    23:00 +22°C° 0 mm 1 mps 741 mmHg 46%

    23 Septiembre, Domingo

    Tiempo Temperatura Precipitaciones Viento Presión Humedad
    00:00 +21°C° 0 mm 1 mps 741 mmHg 47%
    01:00 +21°C° 0 mm 1 mps 741 mmHg 47%
    02:00 +21°C° 0 mm 1 mps 740 mmHg 48%
    03:00 +21°C° 0 mm 1 mps 740 mmHg 49%
    04:00 +20°C° 0 mm 1 mps 741 mmHg 49%
    05:00 +20°C° 0 mm 1 mps 741 mmHg 49%
    06:00 +20°C° 0 mm 2 mps 741 mmHg 48%
    07:00 +22°C° 0 mm 3 mps 741 mmHg 46%
    08:00 +24°C° 0 mm 3 mps 742 mmHg 44%
    09:00 +25°C° 0 mm 4 mps 742 mmHg 43%
    10:00 +27°C° 0 mm 4 mps 742 mmHg 41%
    11:00 +28°C° 0 mm 4 mps 742 mmHg 39%
    12:00 +29°C° 0 mm 4 mps 742 mmHg 37%
    13:00 +30°C° 0 mm 4 mps 742 mmHg 35%
    14:00 +30°C° 0 mm 3 mps 741 mmHg 33%
    15:00 +30°C° 0 mm 3 mps 741 mmHg 34%
    16:00 +30°C° 0 mm 2 mps 741 mmHg 35%
    17:00 +29°C° 0 mm 2 mps 741 mmHg 36%
    18:00 +27°C° 0 mm 2 mps 741 mmHg 41%
    19:00 +25°C° 0 mm 2 mps 741 mmHg 45%
    20:00 +23°C° 0 mm 1 mps 741 mmHg 50%
    21:00 +21°C° 0 mm 2 mps 741 mmHg 54%
    22:00 +21°C° 0 mm 2 mps 741 mmHg 58%
    23:00 +20°C° 0 mm 2 mps 741 mmHg 62%

    24 Septiembre, Lunes

    Tiempo Temperatura Precipitaciones Viento Presión Humedad
    00:00 +20°C° 0 mm 2 mps 741 mmHg 66%
    01:00 +19°C° 0 mm 3 mps 741 mmHg 70%
    02:00 +19°C° 0 mm 3 mps 740 mmHg 74%
    03:00 +19°C° 0 mm 3 mps 740 mmHg 75%
    04:00 +19°C° 0 mm 3 mps 739 mmHg 76%
    05:00 +18°C° 0 mm 3 mps 739 mmHg 78%
    06:00 +20°C° 0 mm 3 mps 738 mmHg 72%
    07:00 +21°C° 0 mm 3 mps 738 mmHg 66%
    08:00 +22°C° 0 mm 3 mps 737 mmHg 60%
    09:00 +25°C° 0 mm 4 mps 737 mmHg 52%
    10:00 +28°C° 0 mm 4 mps 737 mmHg 44%
    11:00 +30°C° 0 mm 4 mps 736 mmHg 36%
    12:00 +32°C° 0 mm 4 mps 735 mmHg 33%
    13:00 +33°C° 0 mm 4 mps 735 mmHg 30%
    14:00 +34°C° 0 mm 4 mps 734 mmHg 27%
    15:00 +34°C° 0 mm 4 mps 734 mmHg 28%
    16:00 +34°C° 0 mm 3 mps 734 mmHg 29%
    17:00 +33°C° 0 mm 3 mps 733 mmHg 30%
    18:00 +28°C° 0 mm 5 mps 734 mmHg 37%
    19:00 +22°C° 0 mm 7 mps 735 mmHg 44%
    20:00 +17°C° 0 mm 9 mps 736 mmHg 51%
    21:00 +16°C° 0 mm 9 mps 737 mmHg 51%
    22:00 +16°C° 0 mm 8 mps 737 mmHg 52%
    23:00 +15°C° 0 mm 8 mps 738 mmHg 52%
    Mostrar más